Terminal Aerodrome Forecast
Issued by NWS

Home | Current Version | Previous Version | Text Only | Print | Product List | Glossary On
Versions: 1 2 3 4 5 6 7 8 9 10 11 12 13 14 15 16 17 18 19 20 21 22 23 24 25 26 27 28 29 30 31
000
FTPA31 PHFO 281700
TAFITO
TAF
PHTO 281730Z 2818/2918 24005KT P6SM VCSH SCT030 OVC045
     FM282000 11008KT P6SM SCT030 BKN045
     FM290500 24005KT P6SM SCT025 BKN045=

USA.gov is the U.S. government's official web portal to all federal, state and local government web resources and services.